Time,TemperatureF,DewpointF,PressureIn,WindDirection,WindDirectionDegrees,WindSpeedMPH,WindSpeedGustMPH,Humidity,HourlyPrecipIn,Conditions,Clouds,dailyrainin,SoftwareType,DateUTC
2013-06-17 00:02:00,62.0,49.0,30.00,SSW,212,0.0,-999.0,63,-99.99,,,-99.99,,2013-06-17 07:02:00,
2013-06-17 00:22:00,61.0,49.0,30.00,SSW,211,2.0,-999.0,65,-99.99,,,-99.99,,2013-06-17 07:22:00,
2013-06-17 00:33:00,61.0,49.0,30.00,SSW,211,2.0,-999.0,65,-99.99,,,-99.99,,2013-06-17 07:33:00,
2013-06-17 00:42:00,61.0,49.0,30.01,SSW,209,2.0,-999.0,65,-99.99,,,-99.99,,2013-06-17 07:42:00,
2013-06-17 00:52:00,61.0,49.0,30.01,SSW,209,2.0,-999.0,65,-99.99,,,-99.99,,2013-06-17 07:52:00,
2013-06-17 01:01:00,60.0,49.0,30.01,SSW,209,1.0,-999.0,67,-99.99,,,-99.99,,2013-06-17 08:01:00,
2013-06-17 01:11:00,60.0,49.0,30.01,SSW,202,3.0,-999.0,68,-99.99,,,-99.99,,2013-06-17 08:11:00,
2013-06-17 01:21:00,59.0,49.0,30.01,SSW,201,1.0,-999.0,69,-99.99,,,-99.99,,2013-06-17 08:21:00,
2013-06-17 01:33:00,59.0,49.0,30.01,SSW,201,1.0,-999.0,69,-99.99,,,-99.99,,2013-06-17 08:33:00,
2013-06-17 01:43:00,59.0,49.0,30.01,SSW,192,1.0,-999.0,70,-99.99,,,-99.99,,2013-06-17 08:43:00,
2013-06-17 01:52:00,59.0,49.0,30.01,SSW,192,1.0,-999.0,70,-99.99,,,-99.99,,2013-06-17 08:52:00,
2013-06-17 02:01:00,58.0,49.0,30.01,South,190,1.0,-999.0,72,-99.99,,,-99.99,,2013-06-17 09:01:00,
2013-06-17 02:11:00,57.0,49.0,30.01,South,190,0.0,-999.0,75,-99.99,,,-99.99,,2013-06-17 09:11:00,
2013-06-17 02:21:00,57.0,49.0,30.01,South,190,0.0,-999.0,75,-99.99,,,-99.99,,2013-06-17 09:21:00,
2013-06-17 02:33:00,56.0,49.0,30.01,South,172,2.0,-999.0,78,-99.99,,,-99.99,,2013-06-17 09:33:00,
2013-06-17 02:43:00,56.0,50.0,30.00,South,172,2.0,-999.0,79,-99.99,,,-99.99,,2013-06-17 09:43:00,
2013-06-17 02:52:00,56.0,50.0,30.00,South,172,2.0,-999.0,79,-99.99,,,-99.99,,2013-06-17 09:52:00,
2013-06-17 03:02:00,56.0,49.0,30.00,South,172,2.0,-999.0,78,-99.99,,,-99.99,,2013-06-17 10:02:00,
2013-06-17 03:12:00,56.0,49.0,30.00,South,172,2.0,-999.0,76,-99.99,,,-99.99,,2013-06-17 10:12:00,
2013-06-17 03:22:00,56.0,49.0,30.00,South,173,4.0,-999.0,76,-99.99,,,-99.99,,2013-06-17 10:22:00,
2013-06-17 03:33:00,56.0,49.0,30.00,South,173,4.0,-999.0,76,-99.99,,,-99.99,,2013-06-17 10:33:00,
2013-06-17 03:42:00,56.0,49.0,30.00,South,173,2.0,-999.0,77,-99.99,,,-99.99,,2013-06-17 10:42:00,
2013-06-17 03:53:00,56.0,49.0,30.00,South,173,2.0,-999.0,77,-99.99,,,-99.99,,2013-06-17 10:53:00,
2013-06-17 04:02:00,56.0,49.0,29.99,South,173,2.0,-999.0,77,-99.99,,,-99.99,,2013-06-17 11:02:00,
2013-06-17 04:11:00,56.0,49.0,29.99,South,175,4.0,-999.0,77,-99.99,,,-99.99,,2013-06-17 11:11:00,
2013-06-17 04:23:00,55.0,48.0,29.99,South,176,4.0,-999.0,78,-99.99,,,-99.99,,2013-06-17 11:23:00,
2013-06-17 04:33:00,55.0,48.0,29.99,South,176,4.0,-999.0,78,-99.99,,,-99.99,,2013-06-17 11:33:00,
2013-06-17 04:43:00,55.0,49.0,29.99,South,178,3.0,-999.0,79,-99.99,,,-99.99,,2013-06-17 11:43:00,
2013-06-17 04:53:00,55.0,49.0,29.99,South,178,3.0,-999.0,79,-99.99,,,-99.99,,2013-06-17 11:53:00,
2013-06-17 05:02:00,55.0,49.0,29.99,South,178,2.0,-999.0,80,-99.99,,,-99.99,,2013-06-17 12:02:00,
2013-06-17 05:11:00,55.0,49.0,29.99,South,178,2.0,-999.0,81,-99.99,,,-99.99,,2013-06-17 12:11:00,
2013-06-17 05:22:00,55.0,49.0,29.99,South,178,1.0,-999.0,80,-99.99,,,-99.99,,2013-06-17 12:22:00,
2013-06-17 05:33:00,55.0,49.0,29.99,South,178,1.0,-999.0,80,-99.99,,,-99.99,,2013-06-17 12:33:00,
2013-06-17 05:43:00,55.0,49.0,29.99,South,178,2.0,-999.0,80,-99.99,,,-99.99,,2013-06-17 12:43:00,
2013-06-17 05:53:00,55.0,49.0,29.99,South,178,2.0,-999.0,80,-99.99,,,-99.99,,2013-06-17 12:53:00,
2013-06-17 06:01:00,55.0,49.0,30.00,South,178,1.0,-999.0,80,-99.99,,,-99.99,,2013-06-17 13:01:00,
2013-06-17 06:11:00,55.0,49.0,30.00,South,178,0.0,-999.0,80,-99.99,,,-99.99,,2013-06-17 13:11:00,
2013-06-17 06:22:00,54.0,48.0,30.00,South,178,2.0,-999.0,80,-99.99,,,-99.99,,2013-06-17 13:22:00,
2013-06-17 06:32:00,54.0,48.0,30.00,South,178,2.0,-999.0,80,-99.99,,,-99.99,,2013-06-17 13:32:00,
2013-06-17 06:43:00,55.0,49.0,30.00,South,178,1.0,-999.0,80,-99.99,,,-99.99,,2013-06-17 13:43:00,
2013-06-17 06:52:00,55.0,49.0,30.00,South,178,1.0,-999.0,80,-99.99,,,-99.99,,2013-06-17 13:52:00,
2013-06-17 07:02:00,56.0,50.0,30.01,South,178,3.0,-999.0,80,-99.99,,,-99.99,,2013-06-17 14:02:00,
2013-06-17 07:11:00,56.0,49.0,30.01,South,178,3.0,-999.0,78,-99.99,,,-99.99,,2013-06-17 14:11:00,
2013-06-17 07:21:00,58.0,50.0,30.01,South,180,4.0,-999.0,76,-99.99,,,-99.99,,2013-06-17 14:21:00,
2013-06-17 07:34:00,58.0,50.0,30.01,South,180,4.0,-999.0,76,-99.99,,,-99.99,,2013-06-17 14:34:00,
2013-06-17 07:43:00,59.0,51.0,30.01,South,180,3.0,-999.0,74,-99.99,,,-99.99,,2013-06-17 14:43:00,
2013-06-17 07:53:00,59.0,51.0,30.01,South,180,3.0,-999.0,74,-99.99,,,-99.99,,2013-06-17 14:53:00,
2013-06-17 08:01:00,60.0,51.0,30.01,South,180,3.0,-999.0,72,-99.99,,,-99.99,,2013-06-17 15:01:00,
2013-06-17 08:12:00,61.0,51.0,30.02,South,176,5.0,-999.0,69,-99.99,,,-99.99,,2013-06-17 15:12:00,
2013-06-17 08:22:00,61.0,51.0,30.02,South,176,5.0,-999.0,69,-99.99,,,-99.99,,2013-06-17 15:22:00,
2013-06-17 08:33:00,63.0,51.0,30.02,South,181,4.0,-999.0,66,-99.99,,,-99.99,,2013-06-17 15:33:00,
2013-06-17 08:43:00,64.0,51.0,30.02,South,177,5.0,-999.0,63,-99.99,,,-99.99,,2013-06-17 15:43:00,
2013-06-17 08:52:00,64.0,51.0,30.02,South,177,5.0,-999.0,63,-99.99,,,-99.99,,2013-06-17 15:52:00,
2013-06-17 09:02:00,66.0,53.0,30.02,South,177,4.0,-999.0,62,-99.99,,,-99.99,,2013-06-17 16:02:00,
2013-06-17 09:11:00,67.0,53.0,30.03,South,173,4.0,-999.0,60,-99.99,,,-99.99,,2013-06-17 16:11:00,
2013-06-17 09:22:00,69.0,54.0,30.03,SSE,167,4.0,-999.0,58,-99.99,,,-99.99,,2013-06-17 16:22:00,
2013-06-17 09:33:00,69.0,54.0,30.03,SSE,167,4.0,-999.0,58,-99.99,,,-99.99,,2013-06-17 16:33:00,
2013-06-17 09:43:00,69.0,52.0,30.03,SSE,166,5.0,-999.0,55,-99.99,,,-99.99,,2013-06-17 16:43:00,
2013-06-17 09:53:00,71.0,53.0,30.03,SSE,163,4.0,-999.0,53,-99.99,,,-99.99,,2013-06-17 16:53:00,
2013-06-17 10:02:00,71.0,53.0,30.03,SSE,163,4.0,-999.0,53,-99.99,,,-99.99,,2013-06-17 17:02:00,
2013-06-17 10:11:00,72.0,53.0,30.02,SSE,159,5.0,-999.0,51,-99.99,,,-99.99,,2013-06-17 17:11:00,
2013-06-17 10:22:00,73.0,54.0,30.02,SSE,155,4.0,-999.0,51,-99.99,,,-99.99,,2013-06-17 17:22:00,
2013-06-17 10:33:00,73.0,54.0,30.02,SSE,155,4.0,-999.0,51,-99.99,,,-99.99,,2013-06-17 17:33:00,
2013-06-17 10:43:00,74.0,52.0,30.01,SSE,155,4.0,-999.0,46,-99.99,,,-99.99,,2013-06-17 17:43:00,
2013-06-17 10:52:00,74.0,52.0,30.01,SSE,155,4.0,-999.0,46,-99.99,,,-99.99,,2013-06-17 17:52:00,
2013-06-17 11:01:00,75.0,52.0,30.01,South,174,4.0,-999.0,45,-99.99,,,-99.99,,2013-06-17 18:01:00,
2013-06-17 11:11:00,76.0,52.0,30.01,SSE,164,5.0,-999.0,43,-99.99,,,-99.99,,2013-06-17 18:11:00,
2013-06-17 11:23:00,77.0,51.0,30.01,South,173,4.0,-999.0,41,-99.99,,,-99.99,,2013-06-17 18:23:00,
2013-06-17 11:33:00,77.0,51.0,30.01,South,173,4.0,-999.0,41,-99.99,,,-99.99,,2013-06-17 18:33:00,
2013-06-17 11:42:00,79.0,52.0,30.01,South,169,3.0,-999.0,39,-99.99,,,-99.99,,2013-06-17 18:42:00,
2013-06-17 11:53:00,79.0,50.0,30.01,South,173,5.0,-999.0,37,-99.99,,,-99.99,,2013-06-17 18:53:00,
2013-06-17 12:02:00,79.0,50.0,30.01,South,173,5.0,-999.0,37,-99.99,,,-99.99,,2013-06-17 19:02:00,
2013-06-17 12:11:00,80.0,52.0,30.01,SSE,159,5.0,-999.0,38,-99.99,,,-99.99,,2013-06-17 19:11:00,
2013-06-17 12:22:00,81.0,51.0,30.01,South,180,5.0,-999.0,35,-99.99,,,-99.99,,2013-06-17 19:22:00,
2013-06-17 12:33:00,81.0,51.0,30.01,South,180,5.0,-999.0,35,-99.99,,,-99.99,,2013-06-17 19:33:00,
2013-06-17 12:43:00,82.0,53.0,30.01,SSW,196,4.0,-999.0,37,-99.99,,,-99.99,,2013-06-17 19:43:00,
2013-06-17 12:53:00,82.0,53.0,30.00,South,185,5.0,-999.0,37,-99.99,,,-99.99,,2013-06-17 19:53:00,
2013-06-17 13:01:00,82.0,53.0,30.00,South,185,5.0,-999.0,37,-99.99,,,-99.99,,2013-06-17 20:01:00,
2013-06-17 13:11:00,83.0,52.0,29.99,South,176,4.0,-999.0,35,-99.99,,,-99.99,,2013-06-17 20:11:00,
2013-06-17 13:22:00,83.0,52.0,29.99,South,176,4.0,-999.0,35,-99.99,,,-99.99,,2013-06-17 20:22:00,
2013-06-17 13:33:00,85.0,53.0,29.98,South,182,6.0,-999.0,34,-99.99,,,-99.99,,2013-06-17 20:33:00,
2013-06-17 13:43:00,86.0,49.0,29.98,SW,221,5.0,-999.0,28,-99.99,,,-99.99,,2013-06-17 20:43:00,
2013-06-17 13:52:00,86.0,49.0,29.98,SW,221,5.0,-999.0,28,-99.99,,,-99.99,,2013-06-17 20:52:00,
2013-06-17 14:01:00,87.0,46.0,29.98,WSW,237,6.0,-999.0,24,-99.99,,,-99.99,,2013-06-17 21:01:00,
2013-06-17 14:12:00,87.0,47.0,29.98,SW,233,5.0,-999.0,25,-99.99,,,-99.99,,2013-06-17 21:12:00,
2013-06-17 14:22:00,87.0,45.0,29.98,WSW,244,6.0,-999.0,23,-99.99,,,-99.99,,2013-06-17 21:22:00,
2013-06-17 14:33:00,87.0,45.0,29.98,WSW,244,6.0,-999.0,23,-99.99,,,-99.99,,2013-06-17 21:33:00,
2013-06-17 14:43:00,88.0,47.0,29.97,SSW,211,5.0,-999.0,24,-99.99,,,-99.99,,2013-06-17 21:43:00,
2013-06-17 14:52:00,88.0,47.0,29.97,SSW,211,5.0,-999.0,24,-99.99,,,-99.99,,2013-06-17 21:52:00,
2013-06-17 15:01:00,88.0,49.0,29.97,SW,232,5.0,-999.0,26,-99.99,,,-99.99,,2013-06-17 22:01:00,
2013-06-17 15:11:00,87.0,55.0,29.97,SSW,199,6.0,-999.0,34,-99.99,,,-99.99,,2013-06-17 22:11:00,
2013-06-17 15:22:00,86.0,57.0,29.97,SW,224,7.0,-999.0,37,-99.99,,,-99.99,,2013-06-17 22:22:00,
2013-06-17 15:33:00,86.0,57.0,29.97,SW,224,7.0,-999.0,37,-99.99,,,-99.99,,2013-06-17 22:33:00,
2013-06-17 15:43:00,85.0,55.0,29.97,SSW,197,8.0,-999.0,36,-99.99,,,-99.99,,2013-06-17 22:43:00,
2013-06-17 15:53:00,85.0,57.0,29.96,South,187,8.0,-999.0,38,-99.99,,,-99.99,,2013-06-17 22:53:00,
2013-06-17 16:02:00,85.0,57.0,29.96,South,187,8.0,-999.0,38,-99.99,,,-99.99,,2013-06-17 23:02:00,
2013-06-17 16:11:00,84.0,56.0,29.96,SSW,192,10.0,-999.0,38,-99.99,,,-99.99,,2013-06-17 23:11:00,
2013-06-17 16:22:00,84.0,56.0,29.96,SSW,192,10.0,-999.0,38,-99.99,,,-99.99,,2013-06-17 23:22:00,
2013-06-17 16:32:00,84.0,57.0,29.96,SSW,194,12.0,-999.0,40,-99.99,,,-99.99,,2013-06-17 23:32:00,
2013-06-17 16:42:00,84.0,58.0,29.95,South,186,9.0,-999.0,41,-99.99,,,-99.99,,2013-06-17 23:42:00,
2013-06-17 16:52:00,83.0,56.0,29.95,SSW,192,7.0,-999.0,40,-99.99,,,-99.99,,2013-06-17 23:52:00,
2013-06-17 17:01:00,83.0,56.0,29.95,SSW,192,7.0,-999.0,40,-99.99,,,-99.99,,2013-06-18 00:01:00,
2013-06-17 17:12:00,82.0,57.0,29.95,SSW,196,11.0,-999.0,42,-99.99,,,-99.99,,2013-06-18 00:12:00,
2013-06-17 17:22:00,82.0,57.0,29.95,SSW,196,11.0,-999.0,42,-99.99,,,-99.99,,2013-06-18 00:22:00,
2013-06-17 17:32:00,82.0,57.0,29.95,South,191,9.0,-999.0,42,-99.99,,,-99.99,,2013-06-18 00:32:00,
2013-06-17 17:43:00,82.0,57.0,29.94,South,190,9.0,-999.0,43,-99.99,,,-99.99,,2013-06-18 00:43:00,
2013-06-17 17:52:00,82.0,57.0,29.94,South,190,9.0,-999.0,43,-99.99,,,-99.99,,2013-06-18 00:52:00,
2013-06-17 18:01:00,80.0,55.0,29.94,SSW,204,10.0,-999.0,43,-99.99,,,-99.99,,2013-06-18 01:01:00,
2013-06-17 18:11:00,81.0,57.0,29.93,SSW,198,8.0,-999.0,44,-99.99,,,-99.99,,2013-06-18 01:11:00,
2013-06-17 18:22:00,80.0,56.0,29.93,SSW,194,7.0,-999.0,44,-99.99,,,-99.99,,2013-06-18 01:22:00,
2013-06-17 18:43:00,79.0,56.0,29.93,SSW,200,8.0,-999.0,45,-99.99,,,-99.99,,2013-06-18 01:43:00,
2013-06-17 18:53:00,79.0,56.0,29.93,SSW,200,8.0,-999.0,45,-99.99,,,-99.99,,2013-06-18 01:53:00,
2013-06-17 19:02:00,78.0,56.0,29.93,South,188,7.0,-999.0,46,-99.99,,,-99.99,,2013-06-18 02:02:00,
2013-06-17 19:11:00,78.0,56.0,29.93,South,177,6.0,-999.0,47,-99.99,,,-99.99,,2013-06-18 02:11:00,
2013-06-17 19:22:00,78.0,56.0,29.93,South,177,6.0,-999.0,47,-99.99,,,-99.99,,2013-06-18 02:22:00,
2013-06-17 19:34:00,77.0,56.0,29.93,SSW,192,5.0,-999.0,48,-99.99,,,-99.99,,2013-06-18 02:34:00,
2013-06-17 19:53:00,73.0,54.0,29.93,SSW,199,4.0,-999.0,52,-99.99,,,-99.99,,2013-06-18 02:53:00,
2013-06-17 20:02:00,73.0,54.0,29.93,SSW,199,4.0,-999.0,52,-99.99,,,-99.99,,2013-06-18 03:02:00,
2013-06-17 20:11:00,72.0,54.0,29.93,SSW,193,4.0,-999.0,53,-99.99,,,-99.99,,2013-06-18 03:11:00,
2013-06-17 20:23:00,70.0,53.0,29.93,SSW,193,3.0,-999.0,55,-99.99,,,-99.99,,2013-06-18 03:23:00,
2013-06-17 20:33:00,70.0,53.0,29.93,SSW,193,3.0,-999.0,55,-99.99,,,-99.99,,2013-06-18 03:33:00,
2013-06-17 20:42:00,69.0,53.0,29.93,South,191,4.0,-999.0,57,-99.99,,,-99.99,,2013-06-18 03:42:00,
2013-06-17 20:53:00,69.0,53.0,29.93,South,191,4.0,-999.0,57,-99.99,,,-99.99,,2013-06-18 03:53:00,
2013-06-17 21:01:00,68.0,53.0,29.94,SSW,192,4.0,-999.0,59,-99.99,,,-99.99,,2013-06-18 04:01:00,
2013-06-17 22:12:00,62.0,52.0,29.95,SSW,193,4.0,-999.0,71,-99.99,,,-99.99,,2013-06-18 05:12:00,
2013-06-17 22:22:00,62.0,53.0,29.96,SSW,192,4.0,-999.0,73,-99.99,,,-99.99,,2013-06-18 05:22:00,
2013-06-17 22:33:00,61.0,53.0,29.96,SSW,194,3.0,-999.0,74,-99.99,,,-99.99,,2013-06-18 05:33:00,
2013-06-17 22:43:00,61.0,53.0,29.96,SSW,195,7.0,-999.0,75,-99.99,,,-99.99,,2013-06-18 05:43:00,
2013-06-17 22:53:00,61.0,53.0,29.96,SSW,195,7.0,-999.0,75,-99.99,,,-99.99,,2013-06-18 05:53:00,
2013-06-17 23:02:00,60.0,52.0,29.96,South,190,7.0,-999.0,76,-99.99,,,-99.99,,2013-06-18 06:02:00,
2013-06-17 23:11:00,60.0,52.0,29.96,South,190,7.0,-999.0,76,-99.99,,,-99.99,,2013-06-18 06:11:00,
2013-06-17 23:23:00,60.0,53.0,29.96,South,191,5.0,-999.0,77,-99.99,,,-99.99,,2013-06-18 06:23:00,
2013-06-17 23:32:00,60.0,53.0,29.96,South,190,7.0,-999.0,77,-99.99,,,-99.99,,2013-06-18 06:32:00,
2013-06-17 23:43:00,60.0,53.0,29.96,South,183,7.0,-999.0,78,-99.99,,,-99.99,,2013-06-18 06:43:00,
2013-06-17 23:52:00,60.0,53.0,29.96,South,183,7.0,-999.0,78,-99.99,,,-99.99,,2013-06-18 06:52:00,